Temp
12 11 12 12 12 13 13 13 14 15 17 17 18 18 20 20 19 19 18 17 16 16 17 19 20 20 19 19 19 18 18 17 17 17 16 16 15 16 16 16 16 16 16 16
11 11 12 13 12 13 13 13 13 15 17 16 16 16 18 20 21 20 20 17 15 16 16 16 18 18 18 18 18 16 17 16 17 17 16 16 15 15 15 15 15 15 15 14
10 12 13 13 12 12 12 12 13 13 15 17 17 17 17 19 20 21 19 18 17 17 16 15 14 16 17 17 17 17 17 17 17 17 16 15 15 14 14 14 14 13 13 13
11 12 12 12 12 12 12 14 14 14 14 14 17 16 17 19 19 19 19 16 16 15 16 14 13 14 16 17 17 17 17 17 17 16 16 15 14 13 13 13 13 12 12 12
11 11 11 11 12 13 13 14 14 14 14 13 15 14 17 19 19 20 20 16 16 16 16 14 14 14 16 17 17 17 17 17 16 16 16 15 14 14 13 12 12 12 11 11
11 12 12 12 13 14 14 13 14 14 13 13 15 15 16 17 19 20 19 16 16 16 14 13 14 14 15 16 16 16 16 16 16 16 16 15 14 13 13 12 12 11 11 10
10 10 11 12 12 13 13 12 12 12 12 14 15 15 16 17 18 21 20 16 15 16 14 13 13 12 12 14 15 16 16 15 15 15 15 15 14 14 13 12 12 11 10 9
10 10 10 12 12 12 13 13 12 11 11 13 16 15 16 18 19 20 19 18 16 15 14 14 13 13 12 13 14 14 15 14 15 15 14 14 13 13 12 12 11 10 9 8
10 10 12 12 13 13 12 12 14 13 14 13 14 15 17 17 17 17 16 16 15 15 14 13 12 12 12 13 13 14 14 13 13 14 13 13 12 12 11 10 10 9 9 8
10 8 11 12 12 13 13 14 12 12 11 14 15 16 18 18 17 16 16 16 15 14 13 12 12 12 12 13 13 13 13 12 12 12 12 12 11 11 10 9 9 9 8 8
10 10 10 11 11 12 11 12 13 14 13 14 16 17 18 19 18 16 16 16 15 14 13 13 12 12 11 12 12 12 12 12 11 11 11 10 10 9 9 9 8 8 7 7
11 10 10 11 12 12 13 13 14 14 14 15 13 15 17 20 19 18 17 16 15 14 13 13 12 10 10 10 11 11 11 11 11 10 10 9 9 8 8 8 7 7 7 6
11 11 11 11 11 11 12 13 14 14 15 14 14 16 18 16 16 17 16 15 14 14 12 12 10 10 10 9 10 10 10 10 9 9 9 8 8 8 8 7 7 6 6 6
12 11 11 12 13 12 12 14 14 13 14 15 15 16 16 16 16 15 14 15 14 13 13 12 11 9 9 9 9 10 9 9 9 8 8 7 7 7 7 6 6 5 5 5
11 10 9 10 10 11 11 15 14 13 15 15 16 15 16 17 17 15 15 14 14 13 13 12 10 9 8 8 8 9 9 8 8 8 7 7 6 6 6 5 5 5 4 4
10 10 10 11 13 14 13 15 14 14 13 12 13 13 18 17 15 14 14 14 14 14 13 12 11 9 8 7 7 8 8 7 8 7 7 6 6 5 5 5 4 4 4 3
10 10 11 13 15 15 15 15 15 11 11 12 12 16 16 16 16 13 13 15 15 14 13 11 10 9 8 7 8 7 7 7 7 6 6 5 5 5 4 4 4 4 3 2
11 11 12 13 14 15 18 17 15 14 14 13 17 15 15 13 9 9 9 13 12 12 11 10 8 7 7 7 7 7 7 6 6 5 5 5 4 4 4 3 3 3 2 1
12 13 12 13 13 16 18 16 16 17 17 17 16 12 12 11 12 10 8 9 9 8 8 7 7 6 7 7 7 7 6 6 5 4 4 4 4 3 3 3 2 2 1 1
13 13 14 12 13 16 17 17 17 18 16 16 14 13 12 12 14 10 8 7 6 6 6 5 5 6 7 6 7 6 5 5 4 4 4 3 3 3 3 2 2 1 0 0
13 13 12 12 13 13 15 17 16 18 16 16 14 14 12 13 11 8 6 5 5 5 5 5 6 5 6 6 6 4 4 4 4 3 3 3 3 2 2 1 1 -0 -0 -1
13 13 13 13 13 12 16 17 19 15 14 12 10 9 7 7 7 6 6 5 5 4 4 5 4 4 5 5 5 4 3 3 3 3 2 2 2 2 1 0 -0 -1 -1 -2
14 14 15 13 13 14 14 16 14 13 12 11 9 8 8 7 7 6 5 4 4 4 3 4 3 3 4 5 5 3 2 3 2 2 2 1 1 1 -0 -1 -1 -2 -2 -3
13 13 14 14 15 15 14 14 13 13 11 9 8 8 8 7 6 5 5 4 4 4 3 3 3 2 2 3 3 3 2 2 2 1 1 1 0 -1 -1 -2 -2 -3 -3 -3
12 12 12 12 13 13 13 13 10 8 8 8 7 8 7 7 6 5 4 4 4 3 3 3 2 2 1 2 2 2 2 2 1 1 0 -0 -1 -1 -2 -2 -3 -3 -3 -3
10 12 13 13 13 13 12 10 9 9 8 8 7 6 6 7 6 5 4 4 4 3 3 2 2 2 1 1 1 1 1 1 1 -0 -1 -1 -2 -2 -2 -3 -3 -3 -4 -4
Height
778 783 779 780 779 776 775 774 769 768 761 762 755 745 740 736 734 733 732 732 735 734 732 733 733 734 736 737 740 743 746 751 752 760 765 770 773 776 778 781 782 783 785 786
786 779 776 775 776 777 777 775 771 768 762 762 755 746 739 727 722 723 723 729 731 733 733 731 731 732 735 737 739 743 746 750 754 758 765 768 773 777 780 782 783 785 786 786
782 771 766 771 772 774 773 773 776 778 767 752 752 741 737 722 720 715 716 717 722 725 728 729 730 731 734 737 740 743 748 752 756 760 765 770 774 777 781 783 784 786 787 787
774 770 768 768 768 773 771 766 767 768 771 770 750 746 728 717 716 715 713 717 718 723 726 729 729 731 733 737 742 745 749 753 758 760 764 767 770 776 781 782 784 786 787 787
767 765 765 765 763 762 763 761 763 763 764 769 753 760 724 715 712 707 703 710 711 714 718 725 726 728 732 737 742 746 750 754 758 761 764 768 773 777 780 783 784 786 787 787
761 756 756 755 754 756 758 762 761 760 763 760 742 749 721 715 700 699 695 703 706 712 719 725 729 729 732 739 743 747 750 754 758 762 765 770 773 776 779 782 784 786 786 787
762 761 757 752 755 754 759 765 763 764 766 744 728 738 714 702 693 682 686 696 702 707 715 723 727 729 732 738 743 748 751 754 758 762 765 769 772 776 778 781 783 785 786 787
751 758 752 744 745 748 748 751 754 761 760 746 728 720 705 685 679 678 679 688 695 704 712 720 723 727 730 737 742 747 751 753 757 761 765 769 772 775 778 780 782 784 785 786
750 747 733 733 736 741 746 751 737 746 735 738 721 708 692 680 678 677 679 685 692 697 708 716 722 727 730 737 742 747 751 754 757 761 765 768 771 774 778 780 782 784 785 785
742 757 732 731 734 735 733 730 749 751 755 733 709 704 685 675 676 678 683 684 691 698 709 716 722 726 731 737 743 749 753 754 758 762 765 768 772 775 778 780 782 783 784 784
737 742 741 735 729 728 738 732 730 730 733 727 706 693 666 661 659 676 682 681 688 697 705 714 721 727 731 737 743 749 754 756 759 763 766 769 773 776 779 781 782 783 783 783
726 732 731 722 719 720 720 720 721 722 725 718 722 703 671 659 657 666 679 680 689 696 704 713 719 726 732 738 744 749 754 757 761 765 767 771 774 777 779 781 782 782 782 782
721 721 721 716 719 720 715 714 715 716 711 719 721 697 669 668 670 670 676 684 691 699 708 715 721 726 731 738 744 750 754 758 762 766 769 772 775 777 780 780 781 781 781 781
710 715 712 702 700 706 703 700 705 716 714 708 703 701 679 678 671 676 681 683 689 696 704 713 721 726 732 737 744 750 755 759 763 767 770 773 775 778 779 780 780 781 780 779
710 711 715 707 704 705 703 687 696 705 699 700 696 706 685 680 668 672 676 684 691 698 706 712 719 725 732 738 744 750 755 760 764 767 770 773 776 778 779 780 780 780 780 778
710 709 709 692 667 670 683 680 687 691 703 709 708 706 675 670 670 675 678 683 689 695 703 711 718 725 731 737 744 750 755 760 764 767 770 774 776 777 779 779 780 779 778 776
707 706 698 672 662 666 674 672 678 701 706 708 712 685 667 671 674 680 682 680 684 691 700 708 715 723 730 737 743 749 755 760 764 767 771 774 776 778 779 779 778 777 776 775
699 698 696 678 670 674 653 654 667 681 685 689 675 668 668 677 691 693 691 685 688 694 701 710 717 725 732 739 745 751 756 760 764 768 771 773 776 777 778 777 777 776 775 773
689 690 692 684 680 664 654 660 667 668 670 666 667 677 680 684 682 693 695 690 693 698 703 710 717 724 733 740 746 751 757 761 765 769 771 774 775 776 776 776 776 775 773 771
682 683 686 690 688 670 658 654 654 653 673 662 666 673 678 680 689 699 700 699 701 704 708 714 722 729 735 743 748 753 758 762 766 769 771 773 774 775 775 775 775 774 772 769
685 685 692 694 689 681 659 654 655 667 672 657 664 665 676 678 685 696 704 706 707 710 715 720 726 732 739 745 750 755 759 763 766 769 771 773 773 774 775 775 774 772 769 766
679 681 683 685 689 693 655 653 656 661 660 664 669 676 686 690 694 702 708 711 714 717 723 727 732 739 745 749 751 756 760 764 767 769 771 773 774 774 774 773 772 770 767 763
675 669 670 679 676 661 659 657 659 660 664 669 673 680 683 692 700 706 713 717 721 724 728 733 737 743 748 751 754 757 762 765 767 770 771 773 774 774 774 772 770 766 763 759
665 663 664 667 657 659 661 660 661 662 667 672 676 681 685 694 703 711 717 721 725 729 733 737 741 746 750 754 757 760 763 766 768 770 772 773 773 773 772 770 767 764 761 758
666 665 667 668 662 663 663 663 667 672 674 678 683 686 692 698 708 712 719 724 728 732 737 740 744 748 752 755 759 762 764 767 769 770 772 772 772 771 770 768 765 763 760 758
663 660 662 660 654 655 658 664 669 672 678 682 685 694 700 702 707 714 721 725 729 734 739 743 747 751 755 758 761 763 766 768 769 770 771 771 770 769 768 766 762 761 759 756
Wind_Speed
2 4 11 11 10 5 8 9 12 4 5 10 16 17 18 12 9 11 10 7 8 9 7 11 12 13 14 13 18 25 34 31 32 30 31 29 27 23 21 20 18 16 14 12
3 11 8 7 8 10 11 15 15 10 10 9 10 15 14 16 15 13 13 8 9 5 7 7 12 15 16 17 22 28 33 33 33 32 29 29 27 23 22 20 18 15 13 11
14 6 15 13 11 10 14 17 9 9 13 18 13 22 14 11 13 14 8 8 11 16 12 9 9 17 19 21 27 32 34 32 31 31 29 29 26 25 22 19 17 14 11 10
13 16 15 10 15 10 17 8 13 13 7 6 4 9 9 11 14 12 11 10 14 10 6 5 7 14 23 23 27 30 31 31 30 31 33 33 27 25 20 17 16 13 10 9
8 8 16 21 18 14 11 8 12 11 10 8 18 8 6 12 12 17 16 14 16 16 15 14 12 19 26 27 29 31 32 30 31 31 32 29 26 20 19 17 15 11 8 8
8 1 5 7 11 18 3 10 8 7 4 10 15 9 9 12 13 10 8 13 16 15 10 8 12 23 27 27 29 32 33 31 29 29 27 25 24 23 21 17 13 9 6 5
6 18 5 2 4 5 13 8 4 6 6 8 5 12 18 8 15 20 12 13 15 16 15 14 15 14 23 28 30 31 31 30 29 27 25 24 22 20 18 16 13 9 5 3
7 3 14 11 17 6 14 16 5 6 4 4 8 10 6 17 18 16 12 14 19 17 15 16 15 19 23 29 32 30 31 29 29 28 25 22 21 19 16 13 11 8 5 3
6 6 2 5 5 14 5 11 20 7 5 3 6 4 8 11 6 8 11 19 20 20 18 17 13 19 23 29 31 33 32 30 29 28 25 22 20 17 16 13 10 6 4 2
6 3 6 4 6 12 10 7 6 6 5 5 5 5 6 6 6 4 14 18 17 16 15 14 13 19 22 30 30 29 30 29 27 25 23 21 19 16 14 12 9 5 2 2
4 4 1 1 6 12 9 9 5 7 8 3 4 4 8 13 9 12 15 18 18 18 17 15 13 19 23 29 29 27 26 26 24 23 22 20 18 15 13 10 7 4 2 4
11 4 5 11 4 10 15 13 13 7 10 8 2 6 4 17 9 17 16 16 15 16 16 14 13 18 22 25 28 27 25 24 23 21 20 18 17 14 11 8 5 2 3 6
10 4 2 4 7 11 12 16 15 13 3 9 3 8 9 3 8 9 14 12 13 14 13 12 11 12 18 22 26 26 24 23 22 20 19 17 15 12 9 6 3 3 5 7
15 4 6 8 3 1 10 20 18 16 10 8 13 10 21 7 8 7 9 13 15 16 16 13 11 10 16 22 26 26 23 22 22 19 18 16 13 9 7 4 2 4 6 9
7 6 6 14 17 14 11 18 23 14 6 13 3 16 29 18 11 12 10 12 14 14 14 14 14 12 16 20 25 25 24 22 21 19 16 13 11 8 5 2 2 4 7 10
5 3 4 16 14 17 7 20 21 11 7 6 11 15 19 2 6 6 12 14 15 15 15 13 13 12 15 20 24 27 24 22 20 18 15 12 9 6 3 1 3 6 9 13
7 4 3 4 6 12 7 19 15 4 8 15 13 19 5 4 6 4 7 15 17 16 15 15 14 13 18 22 29 28 25 22 19 17 13 10 7 5 2 2 4 8 12 16
6 3 5 1 0 3 1 17 23 23 22 22 11 5 5 7 5 6 6 6 8 10 11 11 10 16 22 25 26 26 23 21 18 15 12 9 6 3 1 3 6 10 14 17
5 3 4 3 2 3 3 5 8 11 8 5 7 6 7 7 5 7 9 5 5 7 8 11 18 23 26 28 28 26 22 19 17 13 10 7 4 2 2 5 9 12 16 19
5 2 1 4 2 3 2 2 1 2 2 5 8 12 12 5 4 2 4 7 12 12 16 20 25 27 29 27 26 25 21 18 14 11 8 5 3 2 4 7 11 14 16 18
2 1 4 1 2 6 5 2 1 4 5 2 8 11 7 5 1 8 6 10 11 15 20 25 25 24 27 25 24 23 19 15 12 10 7 4 2 3 6 8 12 15 17 20
5 4 3 3 0 5 1 2 1 3 2 2 5 5 10 13 14 11 10 10 12 13 17 23 22 23 22 21 22 20 16 13 11 8 6 4 3 4 6 10 14 16 18 21
3 5 5 7 5 2 1 0 1 1 3 4 6 10 17 16 13 11 9 9 8 13 16 20 22 22 18 18 18 18 15 12 9 7 5 3 3 4 8 12 14 18 20 20
3 2 2 2 1 1 2 2 3 3 4 7 11 14 14 17 12 11 9 9 8 13 15 21 22 19 17 15 14 16 13 10 8 6 4 2 3 6 10 11 15 16 18 20
4 7 5 4 2 2 1 1 5 8 11 12 9 11 13 16 12 11 9 8 9 13 17 20 20 19 17 16 16 13 11 8 7 5 3 3 5 8 11 14 14 15 16 17
5 6 5 5 7 5 4 7 8 12 10 12 16 11 7 9 12 10 8 9 13 14 18 18 18 19 17 16 14 11 8 7 5 4 2 4 7 10 12 15 20 19 14 16
Wind_Direction
297 212 221 224 221 248 292 290 270 14 321 289 267 274 258 253 242 231 239 232 212 207 207 189 168 166 164 164 165 165 164 160 155 151 138 136 133 132 128 126 124 117 106 94
313 243 232 236 230 235 250 264 273 293 273 268 279 286 277 245 245 227 226 206 203 187 190 181 166 161 163 156 155 156 157 155 157 159 156 150 141 134 129 125 116 109 103 93
225 250 228 220 233 233 239 245 265 261 295 280 284 286 265 254 242 248 223 193 187 188 183 178 160 162 157 155 157 159 157 157 158 157 151 143 140 134 130 125 115 107 99 86
241 231 261 236 234 212 247 221 238 252 268 259 115 277 238 239 238 238 228 190 186 182 162 167 154 154 157 158 158 159 159 159 160 159 156 154 148 144 144 135 124 112 94 83
213 209 217 233 234 222 253 225 234 237 240 271 263 265 251 231 244 223 224 200 190 182 175 172 166 152 153 157 162 162 161 161 163 165 162 157 151 150 146 142 133 117 97 76
216 129 214 212 230 227 246 234 263 246 230 240 241 220 239 231 230 231 223 202 178 174 156 149 149 143 146 154 156 162 162 162 165 163 160 160 153 148 148 149 143 134 106 73
199 234 266 205 226 209 209 236 249 209 207 243 226 206 245 258 243 224 218 188 174 165 155 157 156 148 145 154 156 161 162 159 162 163 161 159 154 154 152 154 152 149 138 94
194 246 198 194 216 179 205 203 209 203 202 221 160 237 243 223 246 255 244 195 164 159 160 163 160 153 148 151 155 159 159 154 158 158 155 154 154 153 150 152 152 149 139 93
202 248 209 226 180 189 204 207 220 310 268 244 215 278 276 253 288 207 157 159 165 157 164 164 155 155 150 155 160 159 155 151 152 152 151 150 151 151 149 147 146 139 125 45
214 263 204 170 177 222 197 161 155 204 240 241 241 234 226 236 213 145 162 166 165 156 156 156 157 156 156 162 162 161 160 155 153 152 153 150 148 148 147 146 143 134 107 10
143 202 172 350 182 205 212 223 206 173 233 266 279 251 203 219 167 176 190 170 165 163 160 160 159 161 156 162 162 161 160 155 153 153 151 149 147 146 146 144 132 114 51 360
201 207 223 234 240 248 210 216 205 209 206 247 319 279 56 238 212 171 187 170 166 161 158 159 157 149 152 158 164 164 161 157 156 154 150 147 147 148 146 137 121 80 15 352
166 219 244 237 200 223 216 208 200 226 221 236 190 273 11 140 152 173 160 155 157 151 149 152 149 155 153 155 162 163 161 157 157 155 152 149 149 150 145 133 105 26 357 347
165 203 240 260 341 39 210 200 204 202 235 208 229 277 287 270 153 152 158 157 158 160 160 158 152 149 147 153 160 161 158 159 157 156 154 152 152 152 142 124 61 9 353 348
164 223 218 245 246 217 245 205 189 192 180 200 209 213 254 249 180 181 161 149 152 159 163 165 159 155 150 147 156 160 157 159 160 156 155 154 152 149 138 107 28 360 353 352
172 248 243 283 263 203 207 191 191 181 187 237 262 288 247 151 93 124 155 157 164 169 168 164 157 150 151 149 152 159 159 158 162 158 156 154 152 147 136 65 5 355 356 350
171 188 286 302 119 129 163 172 177 174 228 196 224 234 163 77 88 108 160 170 172 171 164 161 158 153 147 150 159 159 157 158 159 155 152 151 150 148 126 26 2 357 354 349
181 185 233 304 350 58 67 178 181 196 205 216 211 103 118 120 98 54 9 157 144 144 142 138 132 127 140 155 157 154 155 155 154 151 150 150 151 140 62 9 358 354 351 348
167 165 293 20 299 280 96 94 160 194 199 220 140 111 109 142 105 28 13 55 105 110 107 115 129 136 144 151 151 149 151 152 150 147 147 147 142 115 22 356 355 354 345 343
185 170 316 356 38 30 262 340 88 150 290 172 146 155 160 182 113 234 11 76 86 88 103 111 119 130 138 146 150 148 147 147 145 145 143 142 130 65 7 356 353 347 343 338
130 171 207 348 317 292 258 292 26 120 237 157 166 168 150 137 211 127 106 70 81 97 103 113 119 126 140 148 150 142 143 140 141 143 142 135 103 32 0 353 347 344 345 342
153 159 178 154 173 286 247 358 176 210 46 113 113 113 95 109 102 104 105 103 104 104 102 114 114 125 140 146 145 138 136 140 143 143 138 121 67 17 1 349 347 350 348 346
185 182 170 181 212 242 5 160 31 140 123 114 108 121 124 119 118 120 120 114 106 108 108 118 121 127 134 142 144 138 141 145 145 140 119 85 35 19 359 356 352 349 350 350
268 147 193 128 267 175 142 52 51 74 91 96 118 126 130 126 127 121 119 118 112 113 115 125 123 120 127 139 143 141 144 148 143 128 114 66 27 358 354 358 358 352 351 346
200 148 168 275 280 44 261 187 130 92 102 99 84 113 125 124 123 127 125 121 123 123 129 139 134 133 136 141 139 141 144 146 137 129 98 34 3 349 352 356 359 354 349 340
189 176 166 219 194 173 201 158 137 126 128 127 121 104 88 126 124 124 123 127 131 131 141 140 142 140 141 143 139 139 140 143 132 110 50 5 350 353 351 350 348 355 343 337